Location: Unspecified
(0.0000°N, 0.0000°E)
Time: 07:30:41
(UTC+00:00)

Envisat - Pass Details

Date: 12 January 2019
Orbit: 764 x 766 km, 98.1° (Epoch: 15 June)

Event Time Altitude Azimuth Distance (km) Brightness Sun altitude
Rises 19:24:45 0° 174° (S) 3,231 6.5 -17.7°
Reaches altitude 10° 19:27:05 10° 177° (S) 2,303 5.7 -18.3°
Maximum altitude 19:32:06 63° 258° (WSW) 851 3.4 -19.4°
Drops below altitude 10° 19:37:06 10° 339° (NNW) 2,294 5.4 -20.6°
Sets 19:39:25 0° 342° (NNW) 3,217 6.2 -21.1°
